[[{"header":{"parameterUnit":"m.s-1","parameterCategory":1,"la1":30.2991,"la2":30.254,"lo1":-89.0895,"lo2":-89.0444,"dy":0.0017,"dx":0.0017,"nx":28,"ny":28,"refTime":"2025-11-16T03:00:00:Z","depth":0,"parameterNumber":2,"parameterNumberName":"U-component_of_WINDS"},"data":[0,0,0,0,0,0,0,0,0,0,0,0,0,0,0,0,0,0,0,0,0,0,0,0,0,0,0,0,0,0,0,0,0,0,0,0,0,0,0,0,0,0,0,0,0,0,0,0,0,0,0,0,0,0,0,0,0,0,-1.3743,-1.3744,0,-1.3818,-1.3819,-1.382,-1.3815,-1.3814,-1.3813,-1.3812,-1.389,-1.3893,-1.3896,0,0,0,0,0,0,0,0,0,0,0,0,0,-1.3599,-1.3602,-1.3743,-1.3744,-1.3745,-1.3818,-1.3819,-1.382,-1.3815,-1.3814,-1.3812,-1.3811,-1.3889,-1.3893,-1.3896,0,0,0,0,0,0,0,0,0,0,0,0,0,-1.3667,-1.3603,-1.3743,-1.3751,-1.3753,-1.3818,-1.3819,-1.382,-1.3815,-1.3814,-1.3812,-1.381,-1.3888,-1.3892,-1.3897,-1.3959,0,0,-1.3911,-1.3913,0,0,0,0,0,0,0,0,-1.3663,-1.3672,-1.3749,-1.3751,-1.3753,-1.3805,-1.3797,-1.3867,-1.3816,-1.3792,-1.3812,-1.381,-1.3863,-1.387,-1.3888,-1.3963,-1.3966,-1.3912,-1.3914,-1.3916,-1.3918,0,0,0,0,0,0,0,-1.3658,-1.3669,-1.3773,-1.375,-1.3752,-1.3752,-1.376,-1.381,-1.3836,-1.3794,-1.3793,-1.3802,-1.3864,-1.3883,-1.3889,-1.3967,-1.3911,-1.3916,-1.3919,-1.392,-1.4099,-1.4101,0,0,0,0,0,0,-1.3651,-1.3665,-1.377,-1.3775,-1.3703,-1.3756,-1.3765,-1.379,-1.3835,-1.3841,-1.3804,-1.3802,-1.3876,-1.3884,-1.3892,-1.3969,-1.3916,-1.3921,-1.3923,-1.4097,-1.41,-1.4102,0,0,0,0,0,0,-1.3648,-1.3661,-1.3767,-1.372,-1.3733,-1.376,-1.3789,-1.3792,-1.3812,-1.3843,-1.3848,-1.3818,-1.3875,-1.3886,-1.3943,-1.3972,-1.3923,-1.3927,-1.4095,-1.4098,-1.4101,-1.4122,0,0,0,0,0,0,-1.3644,-1.366,-1.3682,-1.372,-1.3736,-1.3816,-1.3791,-1.3795,-1.3819,-1.3818,-1.3858,-1.3863,-1.3874,-1.3936,-1.3947,-1.3977,-1.3931,-1.4093,-1.4096,-1.41,-1.4119,-1.4126,-1.4131,0,0,0,0,0,-1.3639,-1.3685,-1.3683,-1.3696,-1.3765,-1.3817,-1.3826,-1.3838,-1.3822,-1.3846,-1.3866,-1.3862,-1.3967,-1.3942,-1.3955,-1.3986,-1.4091,-1.4095,-1.41,-1.4116,-1.4124,-1.4131,0,0,0,0,0,0,-1.365,-1.369,-1.3689,-1.3749,-1.378,-1.3816,-1.3846,-1.3846,-1.3882,-1.3879,-1.3893,-1.3902,-1.396,-1.3979,-1.395,-1.405,-1.4027,-1.4034,-1.4035,-1.4043,-1.4049,-1.4043,-1.3935,0,0,0,0,0,-1.3659,-1.3697,-1.3731,-1.3781,-1.3796,-1.3819,-1.3842,-1.3849,-1.3882,-1.3895,-1.3919,-1.3952,-1.3993,-1.4019,-1.4058,-1.4122,-1.4132,-1.4151,-1.4157,-1.4161,-1.4167,-1.4205,-1.4214,-1.4116,-1.4116,-1.4116,0,0,-1.3679,-1.3706,-1.3729,-1.3784,-1.3808,-1.3849,-1.383,-1.3873,-1.3904,-1.3901,-1.3957,-1.3977,-1.4014,-1.4076,-1.4104,-1.4093,-1.4197,-1.4167,-1.4171,-1.4174,-1.421,-1.422,-1.4228,-1.4119,-1.4119,-1.4118,0,0,-1.3735,-1.3759,-1.3804,-1.3829,-1.3867,-1.3882,-1.3893,-1.3931,-1.3944,-1.4,-1.4,-1.4037,-1.4106,-1.4133,-1.4156,-1.4226,-1.4224,-1.4239,-1.427,-1.4306,-1.4314,-1.4321,-1.4347,-1.4356,-1.4245,-1.4245,-1.4245,0,-1.3755,-1.3815,-1.3827,-1.3871,-1.3896,-1.3896,-1.3943,-1.3967,-1.4016,-1.4034,-1.4021,-1.411,-1.4135,-1.4204,-1.4221,-1.4239,-1.4253,-1.4234,-1.4312,-1.4319,-1.4326,-1.4351,-1.436,-1.4247,-1.4246,-1.4246,-1.4246,0,-1.3838,-1.388,-1.3912,-1.3959,-1.3988,-1.4033,-1.4053,-1.4081,-1.4086,-1.4103,-1.4161,-1.4192,-1.4238,-1.4255,-1.426,-1.4326,-1.4318,-1.4309,-1.4286,-1.4336,-1.436,-1.437,-1.4249,-1.4248,-1.4248,-1.4247,0,0,-1.3902,-1.3957,-1.3968,-1.3991,-1.4034,-1.4067,-1.4113,-1.4158,-1.4182,-1.4217,-1.4257,-1.4316,-1.4309,-1.4335,-1.4344,-1.4376,-1.4431,-1.4363,-1.4364,-1.4375,-1.4507,-1.4514,-1.4524,-1.443,-1.4432,-1.4433,-1.4504,0,-1.3963,-1.4043,-1.4057,-1.4128,-1.4168,-1.4171,-1.4211,-1.4243,-1.4261,-1.4298,-1.4318,-1.4361,-1.4347,-1.4363,-1.4395,-1.4417,-1.4458,-1.4412,-1.4469,-1.447,-1.4459,-1.4537,-1.4543,-1.4608,-1.4513,-1.4515,-1.4516,0,-1.4045,-1.4082,-1.4157,-1.4196,-1.4214,-1.4249,-1.4293,-1.4328,-1.4365,-1.4376,-1.4407,-1.4413,-1.4462,-1.4438,-1.4508,-1.4477,-1.4501,-1.4516,-1.4519,-1.4524,-1.4496,-1.4545,-1.4629,-1.4639,-1.4531,-1.4529,-1.4528,0,-1.4084,-1.4153,-1.4207,-1.4226,-1.4274,-1.4299,-1.432,-1.4356,-1.4383,-1.4421,-1.4439,-1.4483,-1.4508,-1.4542,-1.4561,-1.4541,-1.463,-1.4606,-1.4641,-1.4641,-1.4659,-1.4658,-1.4749,-1.4675,-1.4675,-1.4674,-1.4674,0,-1.4151,-1.4197,-1.4226,-1.4259,-1.4312,-1.4328,-1.438,-1.4401,-1.4433,-1.4472,-1.4477,-1.4513,-1.4535,-1.4575,-1.459,-1.4646,-1.4657,-1.4668,-1.4672,-1.4668,-1.4667,-1.4684,-1.468,-1.4677,-1.4676,-1.4676,-1.4675,0,-1.4204,-1.4225,-1.4285,-1.4325,-1.4337,-1.4374,-1.4409,-1.4442,-1.4461,-1.451,-1.4523,-1.4552,-1.46,-1.4622,-1.4681,-1.4691,-1.4756,-1.4756,-1.4743,-1.4744,-1.4778,-1.4775,-1.4884,-1.49,-1.4814,-1.4815,-1.4816,0,-1.4245,-1.4281,-1.4326,-1.4352,-1.4374,-1.4416,-1.4443,-1.4462,-1.4491,-1.4537,-1.4565,-1.4613,-1.4653,-1.473,-1.4757,-1.4803,-1.4805,-1.484,-1.4811,-1.4807,-1.4806,-1.4804,-1.4808,-1.4845,-1.4845,-1.4846,-1.4847,0,-1.4317,-1.4326,-1.4365,-1.4409,-1.4442,-1.4478,-1.4513,-1.4534,-1.4558,-1.4591,-1.464,-1.467,-1.4732,-1.478,-1.4828,-1.4851,-1.4854,-1.4856,-1.4866,-1.4863,-1.4854,-1.486,-1.4757,-1.4853,-1.4852,-1.4852,-1.4851,-1.4851,-1.4365,-1.4398,-1.4435,-1.4479,-1.4508,-1.4541,-1.4575,-1.4598,-1.4639,-1.469,-1.4699,-1.4751,-1.479,-1.4855,-1.488,-1.4923,-1.4915,-1.493,-1.4934,-1.4937,-1.494,-1.4847,-1.4932,-1.4932,-1.4932,-1.4931,-1.4931,0,-1.4438,-1.4462,-1.4503,-1.4552,-1.4587,-1.4586,-1.4626,-1.4656,-1.4702,-1.4738,-1.4777,-1.4834,-1.4882,-1.4914,-1.4963,-1.4991,-1.4993,-1.5003,-1.5001,-1.5007,-1.4944,-1.493,-1.5,-1.5,-1.5,-1.5,-1.5,-1.5,-1.4479,-1.4535,-1.4549,-1.4619,-1.4644,-1.4695,-1.4718,-1.4749,-1.4778,-1.4841,-1.4881,-1.4901,-1.4937,-1.4988,-1.5033,-1.5041,-1.5059,-1.5069,-1.5078,-1.5018,-1.5011,-1.5004,-1.4991,-1.5073,-1.5073,-1.5137,-1.5138,-1.5138]},{"header":{"parameterUnit":"m.s-1","parameterCategory":1,"la1":30.2991,"la2":30.254,"lo1":-89.0895,"lo2":-89.0444,"dy":0.0017,"dx":0.0017,"nx":28,"ny":28,"refTime":"2025-11-16T03:00:00:Z","depth":0,"parameterNumber":3,"parameterNumberName":"V-component_of_WINDS"},"data":[0,0,0,0,0,0,0,0,0,0,0,0,0,0,0,0,0,0,0,0,0,0,0,0,0,0,0,0,0,0,0,0,0,0,0,0,0,0,0,0,0,0,0,0,0,0,0,0,0,0,0,0,0,0,0,0,0,0,1.2403,1.2404,0,1.2444,1.2444,1.2445,1.2457,1.2457,1.2457,1.2457,1.2496,1.2497,1.2498,0,0,0,0,0,0,0,0,0,0,0,0,0,1.2336,1.2337,1.2403,1.2404,1.2404,1.2444,1.2444,1.2445,1.2457,1.2457,1.2457,1.2457,1.2495,1.2497,1.2498,0,0,0,0,0,0,0,0,0,0,0,0,0,1.237,1.2338,1.2403,1.2416,1.2417,1.2444,1.2444,1.2445,1.2458,1.2457,1.2457,1.2457,1.2495,1.2497,1.2499,1.2515,0,0,1.2504,1.2505,0,0,0,0,0,0,0,0,1.2368,1.2372,1.2413,1.2415,1.2417,1.2445,1.2435,1.2468,1.2458,1.2442,1.2457,1.2457,1.2479,1.2482,1.249,1.2517,1.2519,1.2504,1.2505,1.2506,1.2507,0,0,0,0,0,0,0,1.2366,1.2371,1.2419,1.2414,1.2416,1.2419,1.2423,1.2441,1.2462,1.2443,1.2444,1.2449,1.248,1.2489,1.2491,1.2519,1.2504,1.2506,1.2507,1.2508,1.2562,1.2562,0,0,0,0,0,0,1.2361,1.2369,1.2418,1.2421,1.2391,1.242,1.2425,1.2436,1.2461,1.2465,1.2449,1.245,1.2486,1.2489,1.2493,1.2514,1.2506,1.2508,1.2509,1.2562,1.2562,1.2563,0,0,0,0,0,0,1.236,1.2366,1.2416,1.2395,1.2402,1.2422,1.2434,1.2437,1.2446,1.2466,1.2469,1.2455,1.2486,1.249,1.251,1.2516,1.2509,1.251,1.2561,1.2562,1.2562,1.2557,0,0,0,0,0,0,1.2358,1.2365,1.2372,1.2395,1.2403,1.2433,1.2434,1.2438,1.2449,1.245,1.2472,1.2475,1.2486,1.2507,1.2512,1.2518,1.2512,1.2561,1.2562,1.2562,1.2557,1.2557,1.2558,0,0,0,0,0,1.2355,1.2368,1.2372,1.2378,1.2412,1.2433,1.2438,1.2451,1.245,1.2456,1.247,1.2474,1.2514,1.2509,1.2514,1.2521,1.2561,1.2561,1.2562,1.2557,1.2557,1.2558,0,0,0,0,0,0,1.2344,1.2371,1.2376,1.2397,1.2413,1.2436,1.2445,1.2451,1.2467,1.2467,1.2481,1.2486,1.2505,1.2515,1.2508,1.2539,1.2538,1.254,1.2532,1.2532,1.2533,1.253,1.2513,0,0,0,0,0,1.2344,1.236,1.2383,1.2399,1.2407,1.2424,1.2434,1.2443,1.246,1.2466,1.2481,1.2497,1.2513,1.2523,1.2539,1.2559,1.2564,1.2566,1.2567,1.2567,1.2568,1.258,1.2582,1.2565,1.2565,1.2565,0,0,1.2344,1.2361,1.237,1.2397,1.241,1.2426,1.243,1.2446,1.2458,1.2469,1.2488,1.25,1.2518,1.2538,1.2547,1.2547,1.2574,1.2568,1.2568,1.2569,1.2581,1.2582,1.2584,1.2566,1.2566,1.2566,0,0,1.2352,1.2366,1.2381,1.2395,1.2416,1.2428,1.2432,1.2454,1.2462,1.2482,1.2491,1.2505,1.2533,1.2546,1.2556,1.257,1.2576,1.2575,1.2578,1.2589,1.259,1.2591,1.2597,1.2599,1.2577,1.2577,1.2577,0,1.2349,1.2374,1.2388,1.2405,1.2417,1.2428,1.2443,1.2456,1.248,1.2488,1.2488,1.2524,1.2537,1.256,1.2564,1.2572,1.2576,1.2573,1.2589,1.259,1.2592,1.2597,1.2599,1.2576,1.2576,1.2576,1.2576,0,1.2369,1.2387,1.2396,1.2421,1.2434,1.245,1.2466,1.2478,1.2485,1.2497,1.2518,1.2534,1.2554,1.256,1.2567,1.2585,1.2584,1.2586,1.2585,1.2593,1.2598,1.26,1.2576,1.2576,1.2576,1.2576,0,0,1.237,1.2404,1.2407,1.2419,1.2443,1.2457,1.2473,1.2494,1.2503,1.252,1.2534,1.2558,1.2561,1.2572,1.2581,1.2591,1.2602,1.2592,1.2593,1.2593,1.2623,1.2621,1.2623,1.2606,1.2606,1.2606,1.2621,0,1.2382,1.2412,1.2426,1.2451,1.2467,1.2479,1.2493,1.2509,1.2521,1.2536,1.2549,1.2566,1.2567,1.2575,1.2585,1.2598,1.2608,1.2597,1.2619,1.2619,1.2614,1.2626,1.2624,1.2637,1.2623,1.2624,1.2624,0,1.2399,1.2417,1.2443,1.2467,1.2474,1.2487,1.2507,1.2522,1.2541,1.2549,1.2562,1.2571,1.2589,1.2587,1.2611,1.2604,1.2613,1.2621,1.2622,1.2625,1.2622,1.2629,1.2642,1.2644,1.2627,1.2627,1.2627,0,1.2397,1.2428,1.2448,1.2458,1.2486,1.2495,1.2506,1.2525,1.2537,1.2555,1.2562,1.2581,1.2592,1.2606,1.262,1.2617,1.2643,1.2642,1.265,1.265,1.2655,1.2655,1.267,1.2661,1.2661,1.2661,1.2661,0,1.2409,1.2424,1.2448,1.2461,1.2479,1.2494,1.2512,1.2524,1.2541,1.2556,1.2567,1.258,1.2597,1.2613,1.2624,1.2643,1.2647,1.2654,1.2656,1.2653,1.2652,1.2659,1.2659,1.2662,1.2661,1.2661,1.2661,0,1.241,1.2427,1.2449,1.2474,1.2481,1.2493,1.2514,1.2526,1.2539,1.2558,1.2563,1.2582,1.2601,1.2617,1.2641,1.2648,1.2669,1.2671,1.2662,1.2664,1.2671,1.267,1.2692,1.2695,1.2684,1.2684,1.2684,0,1.2416,1.2429,1.2455,1.2467,1.2479,1.2496,1.2509,1.2525,1.2537,1.256,1.257,1.259,1.2607,1.2637,1.2653,1.2672,1.2675,1.2682,1.2678,1.2675,1.2676,1.2675,1.2677,1.2682,1.2682,1.2682,1.2682,0,1.2425,1.2433,1.2451,1.2472,1.2487,1.2504,1.2521,1.253,1.2549,1.2562,1.2583,1.2596,1.2622,1.2642,1.2663,1.2674,1.2681,1.2683,1.2686,1.2682,1.2677,1.268,1.2664,1.2682,1.2682,1.2682,1.2682,1.2682,1.243,1.2442,1.2463,1.2482,1.2497,1.2514,1.2527,1.2541,1.2559,1.2582,1.259,1.2611,1.263,1.2659,1.2671,1.2688,1.2688,1.2692,1.2693,1.2694,1.2694,1.2674,1.2691,1.2691,1.2691,1.2691,1.2691,0,1.244,1.2454,1.2472,1.2497,1.2512,1.2519,1.2538,1.2551,1.2569,1.2587,1.2604,1.2627,1.2647,1.2665,1.2686,1.2695,1.2699,1.27,1.2699,1.2702,1.2692,1.2688,1.2697,1.2697,1.2697,1.2697,1.2697,1.2697,1.2447,1.2468,1.2478,1.2507,1.2521,1.2542,1.2553,1.2568,1.2582,1.2609,1.2625,1.2637,1.2655,1.2677,1.2696,1.27,1.2707,1.2708,1.2713,1.2703,1.2703,1.2702,1.2698,1.2709,1.2709,1.2722,1.2722,1.2722]}]]